TimeEST,TemperatureF,Dew PointF,Humidity,Sea Level PressureIn,VisibilityMPH,Wind Direction,Wind SpeedMPH,Gust SpeedMPH,PrecipitationIn,Events,Conditions,WindDirDegrees,DateUTC
12:51 AM,30.9,23.0,72,30.26,10.0,North,12.7,-,N/A,,Scattered Clouds,360,2012-12-26 05:51:00
1:51 AM,30.0,23.0,75,30.30,10.0,North,6.9,-,N/A,,Partly Cloudy,350,2012-12-26 06:51:00
2:51 AM,30.0,21.9,72,30.28,10.0,North,10.4,-,N/A,,Scattered Clouds,360,2012-12-26 07:51:00
3:51 AM,28.9,21.9,75,30.27,10.0,North,8.1,-,N/A,,Scattered Clouds,10,2012-12-26 08:51:00
4:51 AM,28.9,21.9,75,30.27,10.0,North,4.6,-,N/A,,Scattered Clouds,10,2012-12-26 09:51:00
5:51 AM,28.0,21.9,78,30.27,10.0,NNE,6.9,-,N/A,,Mostly Cloudy,20,2012-12-26 10:51:00
6:51 AM,28.9,21.0,72,30.27,10.0,NNE,9.2,-,N/A,,Mostly Cloudy,30,2012-12-26 11:51:00
7:51 AM,30.0,21.0,69,30.27,10.0,NNE,10.4,-,N/A,,Mostly Cloudy,30,2012-12-26 12:51:00
8:51 AM,30.9,21.0,67,30.24,10.0,NNE,13.8,-,N/A,,Mostly Cloudy,30,2012-12-26 13:51:00
9:51 AM,32.0,21.0,64,30.25,10.0,ENE,12.7,-,N/A,,Overcast,60,2012-12-26 14:51:00
10:51 AM,33.1,21.9,64,30.22,10.0,NE,11.5,-,N/A,,Overcast,40,2012-12-26 15:51:00
11:14 AM,33.8,23.0,65,30.20,10.0,NE,12.7,-,N/A,,Overcast,40,2012-12-26 16:14:00
11:51 AM,34.0,24.1,67,30.17,10.0,NE,11.5,-,N/A,,Overcast,40,2012-12-26 16:51:00
12:51 PM,35.1,26.1,70,30.13,10.0,ENE,12.7,-,N/A,,Overcast,60,2012-12-26 17:51:00
1:51 PM,36.0,28.0,73,30.08,10.0,NE,16.1,-,N/A,,Overcast,50,2012-12-26 18:51:00
2:51 PM,37.0,30.9,79,30.05,9.0,ENE,17.3,24.2,0.00,Snow,Light Snow,60,2012-12-26 19:51:00
3:44 PM,35.6,32.0,87,29.99,7.0,NE,19.6,28.8,0.04,Rain,Ice Pellets,50,2012-12-26 20:44:00
3:51 PM,36.0,32.0,86,29.97,6.0,NE,21.9,28.8,0.05,Rain,Ice Pellets,50,2012-12-26 20:51:00
4:44 PM,35.6,33.8,93,29.93,10.0,ENE,24.2,32.2,0.04,Rain,Light Rain,60,2012-12-26 21:44:00
4:51 PM,37.0,33.1,86,29.91,10.0,ENE,27.6,32.2,0.05,Rain,Light Rain,60,2012-12-26 21:51:00
5:51 PM,37.0,33.1,86,29.88,8.0,ENE,27.6,39.1,0.03,Rain,Light Rain,70,2012-12-26 22:51:00
6:51 PM,37.0,34.0,89,29.82,8.0,ENE,25.3,38.0,0.03,Rain,Light Rain,60,2012-12-26 23:51:00
7:51 PM,37.0,34.0,89,29.75,7.0,ENE,29.9,41.4,0.04,Rain,Rain,60,2012-12-27 00:51:00
8:51 PM,37.9,36.0,93,29.69,5.0,ENE,25.3,39.1,0.17,Rain,Heavy Rain,60,2012-12-27 01:51:00
9:51 PM,39.9,37.0,89,29.60,6.0,ENE,31.1,44.9,0.12,Rain,Rain,60,2012-12-27 02:51:00
10:51 PM,41.0,39.0,93,29.52,5.0,ENE,26.5,47.2,0.12,Rain,Light Rain,60,2012-12-27 03:51:00
11:51 PM,42.1,39.9,92,29.45,4.0,ENE,31.1,41.4,0.09,Rain,Rain,60,2012-12-27 04:51:00